This demonstration page uses our WeatherBlox Daily Observations layout. Learn more.

Left ArrowRight Arrow

Hourly Observations for May 13, 2015

Temp ( °F °C ) Dew Point ( °F °C ) Humidity (%) Winds ( mph kmh ) Pressure ( in mb ) Visibility ( mi km ) Precip ( " mm )
12:58 am 00:58 Clear 51 10.7 42 5.6 71 71 ESE 8 13 30.27 1025 10 16 0.00 0.00
1:58 am 01:58 Clear 52 10.9 42 5.6 70 70 E 5 7 30.26 1025 10 16 0.00 0.00
2:58 am 02:58 Clear 51 10.8 42 5.7 71 71 ESE 9 15 30.26 1025 10 16 0.00 0.00
3:58 am 03:58 Clear 51 10.5 42 5.6 72 72 ESE 8 13 30.26 1025 10 16 0.00 0.00
4:58 am 04:58 Clear 50 10 42 5.5 74 74 ESE 8 13 30.26 1025 10 16 0.00 0.00
5:58 am 05:58 Clear 49 9.6 42 5.3 75 75 ESE 8 13 30.26 1025 10 16 0.00 0.00
6:58 am 06:58 Sunny 51 10.3 42 5.6 73 73 ESE 8 13 30.27 1025 10 16 0.00 0.00
7:58 am 07:58 Sunny 54 12.2 44 6.6 69 69 ESE 9 15 30.29 1026 10 16 0.00 0.00
8:58 am 08:58 Sunny 59 15.1 44 6.6 57 57 SE 14 22 30.27 1025 10 16 0.00 0.00
9:58 am 09:58 Sunny 64 17.5 45 7.1 51 51 SE 21 33 30.27 1025 10 16 0.00 0.00
11:58 am 11:58 Sunny 69 20.4 44 6.5 41 41 SSE 24 39 30.24 1024 10 16 0.00 0.00
12:58 pm 12:58 Sunny 70 21.1 41 5.2 36 36 SSE 22 35 30.22 1023 10 16 0.00 0.00
1:58 pm 13:58 Partly Cloudy 70 21.1 41 5 35 35 SE 21 33 30.19 1022 10 16 0.00 0.00
2:58 pm 14:58 Mostly Cloudy 71 21.8 42 5.8 35 35 SSE 18 30 30.16 1022 10 16 0.00 0.00
3:58 pm 15:58 Mostly Cloudy 72 22 43 6 36 36 SE 17 28 30.13 1020 10 16 0.00 0.00
4:58 pm 16:58 Sunny 70 21.2 41 4.8 34 34 SSE 18 30 30.14 1021 10 16 0.00 0.00
5:58 pm 17:58 Sunny 68 20.2 42 5.5 38 38 SE 17 28 30.13 1020 10 16 0.00 0.00
6:58 pm 18:58 Sunny 66 19.1 43 5.9 42 42 SE 15 24 30.14 1021 10 16 0.00 0.00
7:23 pm 19:23 Partly Cloudy with Light Rain 64 18 45 7 49 49 SE 21 33 30.09 1019 10 16 0.00 0.00
7:30 pm 19:30 Partly Cloudy 64 18 45 7 49 49 SE 16 26 30.09 1019 10 16 0.00 0.00
7:36 pm 19:36 Partly Cloudy with Light Rain 64 18 45 7 49 49 SE 14 22 30.09 1019 10 16 0.00 0.00
7:56 pm 19:56 Sunny 61 16 48 9 63 63 SE 16 26 30.12 1020 10 16 0.00 0.00
7:58 pm 19:58 Sunny 61 16.1 49 9.3 64 64 SE 16 26 30.14 1021 10 16 0.00 0.03
8:15 pm 20:15 Partly Cloudy with Light Rain 59 15 50 10 72 72 SE 18 30 30.12 1020 9 14 0.00 0.00
8:58 pm 20:58 Mostly Clear with Light Rain 56 13.6 52 11.2 86 86 ESE 8 13 30.13 1020 8 13 0.02 0.51
9:29 pm 21:29 Mostly Cloudy 55 13 52 11 88 88 E 8 13 30.12 1020 10 16 0.00 0.00
9:52 pm 21:52 Mostly Cloudy with Light Rain 55 13 52 11 88 88 ESE 9 15 30.12 1020 9 14 0.00 0.00
9:58 pm 21:58 Mostly Cloudy with Light Rain 56 13.1 52 11.2 88 88 ESE 10 17 30.13 1020 7 11 0.01 0.25
9:59 pm 21:59 Mostly Cloudy with Light Rain 55 13 52 11 88 88 ESE 10 17 30.12 1020 6 10 0.00 0.00
10:11 pm 22:11 Mostly Cloudy with Rain 55 13 52 11 88 88 SE 9 15 30.12 1020 5 8 0.00 0.00
10:37 pm 22:37 Cloudy with Light Rain 55 13 54 12 94 94 SE 10 17 30.15 1021 7 11 0.00 0.00
10:47 pm 22:47 Mostly Cloudy with Light Rain 55 13 54 12 94 94 ESE 10 17 30.15 1021 6 10 0.00 0.00
10:58 pm 22:58 Partly Cloudy with Rain 55 12.8 53 11.7 93 93 SE 9 15 30.14 1021 6 10 0.08 2.03
11:04 pm 23:04 Mostly Clear with Rain 55 13 54 12 94 94 ESE 7 11 30.12 1020 5 8 0.00 0.00
11:14 pm 23:14 Clear 55 13 54 12 94 94 E 5 7 30.12 1020 8 13 0.00 0.00
11:20 pm 23:20 Mostly Clear with Light Rain 55 13 54 12 94 94 E 5 7 30.12 1020 8 13 0.00 0.00
11:58 pm 23:58 Mostly Clear with Light Rain 55 12.9 53 11.7 92 92 E 10 17 30.10 1019 8 13 0.10 2.54

Powered by AerisWeather